loading
|

DELTA 1 R/B, 3315

Orbit data source: Space-Track

DELTA 1 R/B, 3315 is space debris in HEO originally from a launch on Thu, 04 Jul 1968 UTC launched from the Air Force Western Test Range (AFWTR). Debris objects in space refer to the collection of defunct objects orbiting the Earth. Examples of debris include non-operational satellites, rocket bodies, and fragments generated from explosions, collisions, or faulty payload assembly.

Loading next visibility...
Next conjunction unknown
Loading greatness...
DELTA 1 R/B details
Identifier
3315, 1968-055B
Orbit
HEO
Last TLE update21 hours ago
Origin
Flag of USGSFC (US)
ManufacturerThiokol/TE
MissionSpacecraft
Bus & MotorSTAR 37, Unknown motor
Mass65 kg wet, 65 kg dry
Launch date (UTC)
1968-07-04 (56 years ago)
Launch vehicleUnknown
Launch site
Air Force Western Test Range (AFWTR)
Object type
Payload
Rocket body
Debris
Shape & HBRSphere + Cone, 1 m
Radar Cross Section0.734 m², Medium (>0.1 m² and < 1m²)

Expand to show TLE details & history

TLE from 21 hours ago
0 DELTA 1 R/B
1  3315U 68055B   24285.90175699  .00000208  00000-0  54212-3 0  9990
2  3315 120.6840  79.5930 2636616 354.5827 153.7928  9.25574873898103
Epoch: 2024-10-11T21:38Z
Definitive object data (Epoch: 2024-10-11T21:38:31.803Z)
Latitude18.29307°
Longitude-74.72844°
Altitude5,565.798 km
Speed5.017 km/s
True Right ascension18h 03m 28s
True Declination18° 13' 55"
Sunlit
Object was in daylight at TLE epoch
Predictive object data (real-time)
Latitude29.66752°
Longitude-65.10482°
Altitude5,177.337 km
Speed5.237 km/s
Apparent Right ascension20h 25m 39s
Apparent Declination8° 16' 39"
Sunlit
Object is in daylight
Predictive observer data (real-time)
Local Sidereal Time12:40:26
Azimuth66.171° ENE
Elevation-14.121°
Doppler factor1
Orbital elements
Apogee5,729.697 km
Perigee677.125 km
Semi-major axis9,581.548 km
Eccentricity0.2636616
Inclination120.684°
RAAN79.593°
Arg. of periapsis354.5827°
True anomaly164.02293°
Mean anomaly153.7928°
Eccentric anomaly159.16574°
Mean motion2.31414 °/min
BSTAR0.00054212
Period155.57 mins
No data available

DELTA 1 R/B Visibility forecast

Observer location: 39.9160978°, -105.1181434

Span
Click to sort rows by Start time (UTC) header in descending order
Start Az.
Max El. time (UTC)
Max El. Az.
Max El.
End time (UTC)
End Az.
32 mins2024-10-12 20:44:40.602Z76.59° E2024-10-12 20:59:40.602Z112.449° ESE17.479°2024-10-12 21:16:40.602Z148.844° SSE
49 mins2024-10-12 23:04:40.602Z49.966° ENE2024-10-12 23:24:40.602Z130.127° SE40.522°2024-10-12 23:53:40.602Z203.676° SW
43 mins2024-10-13 01:32:40.602Z40.311° NE2024-10-13 01:47:40.602Z325.289° NNW43.729°2024-10-13 02:15:40.602Z244.886° WSW
28 mins2024-10-13 04:02:40.602Z39.862° NE2024-10-13 04:11:40.602Z343.865° N33.482°2024-10-13 04:30:40.602Z284.439° WNW
18 mins2024-10-13 06:30:40.602Z65.187° ENE2024-10-13 06:36:40.602Z7.14° NNE30.918°2024-10-13 06:48:40.602Z314.023° NW
14 mins2024-10-13 08:59:40.602Z138.962° SSE2024-10-13 09:03:40.602Z230.843° WSW44.924°2024-10-13 09:13:40.602Z317.25° NNW